Time,TemperatureF,DewpointF,PressureIn,WindDirection,WindDirectionDegrees,WindSpeedMPH,WindSpeedGustMPH,Humidity,HourlyPrecipIn,Conditions,Clouds,dailyrainin,SolarRadiationWatts/m^2,SoftwareType,DateUTC
2013-10-22 00:01:00,53.2,48.6,29.97,South,180,1.0,7.0,84,0.00,,,0.00,0.0,meteohub,2013-10-22 04:01:00,
2013-10-22 00:02:00,53.2,48.6,29.97,South,180,0.0,7.0,84,0.00,,,0.00,0.0,meteohub,2013-10-22 04:02:00,
2013-10-22 00:07:00,53.2,48.6,29.97,South,179,0.0,7.0,84,0.00,,,0.00,0.0,meteohub,2013-10-22 04:07:00,
2013-10-22 00:12:00,53.1,48.4,29.96,South,179,0.0,2.0,84,0.00,,,0.00,0.0,meteohub,2013-10-22 04:12:00,
2013-10-22 00:17:00,53.1,48.7,29.96,South,179,0.0,2.0,85,0.00,,,0.00,0.0,meteohub,2013-10-22 04:17:00,
2013-10-22 00:22:00,52.9,48.6,29.96,SE,126,0.0,2.0,85,0.00,,,0.00,0.0,meteohub,2013-10-22 04:22:00,
2013-10-22 00:27:00,52.9,48.6,29.96,SE,126,1.0,4.0,85,0.00,,,0.00,0.0,meteohub,2013-10-22 04:27:00,
2013-10-22 00:32:00,52.9,48.6,29.96,SE,126,1.0,4.0,85,0.00,,,0.00,0.0,meteohub,2013-10-22 04:32:00,
2013-10-22 00:37:00,52.9,48.7,29.96,SSE,159,1.0,4.0,86,0.00,,,0.00,0.0,meteohub,2013-10-22 04:37:00,
2013-10-22 00:42:00,52.9,48.7,29.96,South,173,1.0,6.0,86,0.00,,,0.00,0.0,meteohub,2013-10-22 04:42:00,
2013-10-22 00:47:00,53.1,48.9,29.96,SE,136,0.0,6.0,86,0.00,,,0.00,0.0,meteohub,2013-10-22 04:47:00,
2013-10-22 00:52:00,53.2,49.1,29.95,South,175,0.0,6.0,86,0.00,,,0.00,0.0,meteohub,2013-10-22 04:52:00,
2013-10-22 00:57:00,53.4,49.3,29.95,South,173,0.0,7.0,86,0.00,,,0.00,0.0,meteohub,2013-10-22 04:57:00,
2013-10-22 01:02:00,53.4,49.3,29.95,South,181,2.0,7.0,86,0.00,,,0.00,0.0,meteohub,2013-10-22 05:02:00,
2013-10-22 01:07:00,53.6,49.5,29.95,SSE,160,0.0,7.0,86,0.00,,,0.00,0.0,meteohub,2013-10-22 05:07:00,
2013-10-22 01:12:00,53.8,49.6,29.95,South,171,1.0,7.0,86,0.00,,,0.00,0.0,meteohub,2013-10-22 05:12:00,
2013-10-22 01:17:00,53.8,49.6,29.94,WSW,248,1.0,7.0,86,0.00,,,0.00,0.0,meteohub,2013-10-22 05:17:00,
2013-10-22 01:22:00,54.0,49.8,29.94,South,172,4.0,7.0,86,0.00,,,0.00,0.0,meteohub,2013-10-22 05:22:00,
2013-10-22 01:27:00,54.1,50.0,29.94,SE,126,2.0,7.0,86,0.00,,,0.00,0.0,meteohub,2013-10-22 05:27:00,
2013-10-22 01:32:00,54.1,50.0,29.94,SSE,166,2.0,7.0,86,0.00,,,0.00,0.0,meteohub,2013-10-22 05:32:00,
2013-10-22 01:37:00,54.3,50.2,29.94,SE,128,1.0,8.0,86,0.00,,,0.00,0.0,meteohub,2013-10-22 05:37:00,
2013-10-22 01:42:00,54.3,50.2,29.94,SSW,210,5.0,8.0,86,0.00,,,0.00,0.0,meteohub,2013-10-22 05:42:00,
2013-10-22 01:47:00,54.3,50.2,29.94,SE,134,8.0,9.0,86,0.00,,,0.00,0.0,meteohub,2013-10-22 05:47:00,
2013-10-22 01:52:00,54.5,50.4,29.94,South,171,2.0,9.0,86,0.00,,,0.00,0.0,meteohub,2013-10-22 05:52:00,
2013-10-22 01:57:00,54.5,50.7,29.94,South,180,4.0,9.0,87,0.00,,,0.00,0.0,meteohub,2013-10-22 05:57:00,
2013-10-22 02:02:00,54.7,50.9,29.94,SSW,200,5.0,8.0,87,0.00,,,0.00,0.0,meteohub,2013-10-22 06:02:00,
2013-10-22 02:07:00,54.9,51.1,29.94,SW,220,3.0,10.0,87,0.00,,,0.00,0.0,meteohub,2013-10-22 06:07:00,
2013-10-22 02:12:00,54.9,51.1,29.93,SW,234,3.0,10.0,87,0.00,,,0.00,0.0,meteohub,2013-10-22 06:12:00,
2013-10-22 02:17:00,55.0,51.3,29.94,SW,227,5.0,10.0,87,0.00,,,0.00,0.0,meteohub,2013-10-22 06:17:00,
2013-10-22 02:22:00,55.0,51.6,29.93,WSW,246,3.0,10.0,88,0.00,,,0.00,0.0,meteohub,2013-10-22 06:22:00,
2013-10-22 02:27:00,55.2,51.8,29.93,SW,219,8.0,10.0,88,0.00,,,0.00,0.0,meteohub,2013-10-22 06:27:00,
2013-10-22 02:32:00,55.2,51.8,29.93,SSW,203,1.0,12.0,88,0.00,,,0.00,0.0,meteohub,2013-10-22 06:32:00,
2013-10-22 02:37:00,55.2,51.8,29.93,South,184,3.0,12.0,88,0.00,,,0.00,0.0,meteohub,2013-10-22 06:37:00,
2013-10-22 02:42:00,55.2,51.8,29.93,SW,229,2.0,12.0,88,0.00,,,0.00,0.0,meteohub,2013-10-22 06:42:00,
2013-10-22 02:47:00,55.2,51.8,29.93,South,171,2.0,11.0,88,0.00,,,0.00,0.0,meteohub,2013-10-22 06:47:00,
2013-10-22 02:52:00,55.2,51.8,29.93,SSE,155,2.0,11.0,88,0.00,,,0.00,0.0,meteohub,2013-10-22 06:52:00,
2013-10-22 02:57:00,55.2,51.8,29.92,SSE,154,4.0,8.0,88,0.00,,,0.00,0.0,meteohub,2013-10-22 06:57:00,
2013-10-22 03:02:00,55.0,51.6,29.92,South,180,4.0,8.0,88,0.00,,,0.00,0.0,meteohub,2013-10-22 07:02:00,
2013-10-22 03:07:00,55.0,51.6,29.92,SSW,210,1.0,10.0,88,0.00,,,0.00,0.0,meteohub,2013-10-22 07:07:00,
2013-10-22 03:12:00,55.0,51.6,29.92,SSE,159,0.0,10.0,88,0.00,,,0.00,0.0,meteohub,2013-10-22 07:12:00,
2013-10-22 03:17:00,54.9,51.4,29.92,SE,142,2.0,10.0,88,0.00,,,0.00,0.0,meteohub,2013-10-22 07:17:00,
2013-10-22 03:22:00,54.9,51.4,29.91,SSE,150,2.0,9.0,88,0.00,,,0.00,0.0,meteohub,2013-10-22 07:22:00,
2013-10-22 03:27:00,54.9,51.4,29.91,South,190,3.0,9.0,88,0.00,,,0.00,0.0,meteohub,2013-10-22 07:27:00,
2013-10-22 03:32:00,54.7,51.3,29.91,South,180,4.0,9.0,88,0.00,,,0.00,0.0,meteohub,2013-10-22 07:32:00,
2013-10-22 03:37:00,54.7,51.3,29.91,WSW,245,2.0,9.0,88,0.00,,,0.00,0.0,meteohub,2013-10-22 07:37:00,
2013-10-22 03:42:00,54.7,51.3,29.91,SSE,149,2.0,9.0,88,0.00,,,0.00,0.0,meteohub,2013-10-22 07:42:00,
2013-10-22 03:47:00,54.5,51.1,29.91,SSE,166,2.0,11.0,88,0.00,,,0.00,0.0,meteohub,2013-10-22 07:47:00,
2013-10-22 03:52:00,54.3,51.1,29.91,South,171,6.0,11.0,89,0.00,,,0.00,0.0,meteohub,2013-10-22 07:52:00,
2013-10-22 03:57:00,54.3,50.9,29.91,SSE,150,1.0,9.0,88,0.00,,,0.00,0.0,meteohub,2013-10-22 07:57:00,
2013-10-22 04:02:00,54.3,51.1,29.91,WSW,247,1.0,11.0,89,0.00,,,0.00,0.0,meteohub,2013-10-22 08:02:00,
2013-10-22 04:07:00,54.3,51.1,29.91,South,178,5.0,11.0,89,0.00,,,0.00,0.0,meteohub,2013-10-22 08:07:00,
2013-10-22 04:12:00,54.3,51.1,29.91,ESE,119,4.0,11.0,89,0.00,,,0.00,0.0,meteohub,2013-10-22 08:12:00,
2013-10-22 04:17:00,54.3,51.1,29.91,South,180,6.0,11.0,89,0.00,,,0.00,0.0,meteohub,2013-10-22 08:17:00,
2013-10-22 04:22:00,54.3,51.1,29.91,West,273,2.0,13.0,89,0.00,,,0.00,0.0,meteohub,2013-10-22 08:22:00,
2013-10-22 04:27:00,54.5,51.3,29.91,SSE,164,4.0,13.0,89,0.00,,,0.00,0.0,meteohub,2013-10-22 08:27:00,
2013-10-22 04:32:00,54.5,51.3,29.91,SSE,164,4.0,13.0,89,0.00,,,0.00,0.0,meteohub,2013-10-22 08:32:00,
2013-10-22 04:37:00,54.5,51.3,29.91,SSE,164,4.0,6.0,89,0.00,,,0.00,0.0,meteohub,2013-10-22 08:37:00,
2013-10-22 04:42:00,54.5,51.3,29.91,North,-999,-999.0,5.0,89,0.00,,,0.00,,meteohub,2013-10-22 08:42:00,
2013-10-22 05:11:00,54.9,51.6,29.90,North,-999,-999.0,-999.0,89,0.00,,,0.00,0.0,meteohub,2013-10-22 09:11:00,
2013-10-22 05:16:00,54.9,51.6,29.90,SSE,151,1.0,-999.0,89,0.00,,,0.00,0.0,meteohub,2013-10-22 09:16:00,
2013-10-22 05:21:00,54.9,51.6,29.90,South,169,1.0,8.0,89,0.00,,,0.00,0.0,meteohub,2013-10-22 09:21:00,
2013-10-22 05:26:00,54.9,51.4,29.90,WSW,240,2.0,10.0,88,0.00,,,0.00,0.0,meteohub,2013-10-22 09:26:00,
2013-10-22 05:31:00,54.9,51.6,29.90,WSW,244,2.0,10.0,89,0.00,,,0.00,0.0,meteohub,2013-10-22 09:31:00,
2013-10-22 05:36:00,54.9,51.6,29.90,SSE,151,5.0,10.0,89,0.00,,,0.00,0.0,meteohub,2013-10-22 09:36:00,
2013-10-22 05:41:00,54.7,51.4,29.89,NNE,26,4.0,10.0,89,0.00,,,0.00,0.0,meteohub,2013-10-22 09:41:00,
2013-10-22 05:46:00,54.7,51.4,29.89,South,179,4.0,10.0,89,0.00,,,0.00,0.0,meteohub,2013-10-22 09:46:00,
2013-10-22 05:52:00,54.7,51.3,29.89,SE,138,1.0,10.0,88,0.00,,,0.00,0.0,meteohub,2013-10-22 09:52:00,
2013-10-22 05:57:00,54.7,51.3,29.89,WSW,242,4.0,12.0,88,0.00,,,0.00,0.0,meteohub,2013-10-22 09:57:00,
2013-10-22 06:02:00,54.7,51.3,29.89,SW,235,0.0,12.0,88,0.00,,,0.00,0.0,meteohub,2013-10-22 10:02:00,
2013-10-22 06:07:00,54.5,51.1,29.88,SSW,213,6.0,8.0,88,0.00,,,0.00,0.0,meteohub,2013-10-22 10:07:00,
2013-10-22 06:12:00,54.5,50.7,29.88,SW,235,1.0,9.0,87,0.00,,,0.00,0.0,meteohub,2013-10-22 10:12:00,
2013-10-22 06:17:00,54.3,50.5,29.88,SW,225,4.0,9.0,87,0.00,,,0.00,0.0,meteohub,2013-10-22 10:17:00,
2013-10-22 06:22:00,54.3,50.2,29.88,SW,233,6.0,9.0,86,0.00,,,0.00,0.0,meteohub,2013-10-22 10:22:00,
2013-10-22 06:27:00,54.5,50.4,29.88,South,174,5.0,9.0,86,0.00,,,0.00,0.0,meteohub,2013-10-22 10:27:00,
2013-10-22 06:32:00,54.5,50.4,29.88,SSW,200,2.0,9.0,86,0.00,,,0.00,0.0,meteohub,2013-10-22 10:32:00,
2013-10-22 06:37:00,54.5,50.4,29.88,South,181,1.0,10.0,86,0.00,,,0.00,0.0,meteohub,2013-10-22 10:37:00,
2013-10-22 06:42:00,54.5,50.4,29.88,SSE,163,2.0,13.0,86,0.00,,,0.00,0.0,meteohub,2013-10-22 10:42:00,
2013-10-22 06:47:00,54.7,50.2,29.88,South,173,4.0,13.0,85,0.00,,,0.00,0.0,meteohub,2013-10-22 10:47:00,
2013-10-22 06:52:00,54.7,50.2,29.88,WSW,243,1.0,13.0,85,0.00,,,0.00,0.0,meteohub,2013-10-22 10:52:00,
2013-10-22 06:57:00,54.7,50.2,29.88,SSW,207,2.0,12.0,85,0.00,,,0.00,0.0,meteohub,2013-10-22 10:57:00,
2013-10-22 07:02:00,54.7,50.2,29.88,SSE,159,1.0,14.0,85,0.00,,,0.00,0.0,meteohub,2013-10-22 11:02:00,
2013-10-22 07:07:00,54.7,50.2,29.88,South,184,1.0,14.0,85,0.00,,,0.00,7.0,meteohub,2013-10-22 11:07:00,
2013-10-22 07:12:00,54.7,50.2,29.88,SSW,203,5.0,14.0,85,0.00,,,0.00,9.0,meteohub,2013-10-22 11:12:00,
2013-10-22 07:17:00,54.7,50.2,29.88,SE,128,1.0,12.0,85,0.00,,,0.00,12.0,meteohub,2013-10-22 11:17:00,
2013-10-22 07:22:00,54.7,50.2,29.88,South,175,5.0,12.0,85,0.00,,,0.00,19.0,meteohub,2013-10-22 11:22:00,
2013-10-22 07:27:00,54.7,50.2,29.88,SSW,213,3.0,11.0,85,0.00,,,0.00,25.0,meteohub,2013-10-22 11:27:00,
2013-10-22 07:32:00,54.9,50.4,29.87,SW,220,5.0,11.0,85,0.00,,,0.00,28.0,meteohub,2013-10-22 11:32:00,
2013-10-22 07:37:00,54.9,50.4,29.88,SE,140,12.0,12.0,85,0.00,,,0.00,28.0,meteohub,2013-10-22 11:37:00,
2013-10-22 07:42:00,55.0,50.4,29.87,WSW,245,3.0,12.0,84,0.00,,,0.00,30.0,meteohub,2013-10-22 11:42:00,
2013-10-22 07:47:00,55.0,50.4,29.87,South,175,4.0,12.0,84,0.00,,,0.00,46.0,meteohub,2013-10-22 11:47:00,
2013-10-22 07:52:00,55.2,50.5,29.87,East,81,1.0,12.0,84,0.00,,,0.00,47.0,meteohub,2013-10-22 11:52:00,
2013-10-22 07:57:00,55.2,50.5,29.87,ESE,117,5.0,9.0,84,0.00,,,0.00,33.0,meteohub,2013-10-22 11:57:00,
2013-10-22 08:02:00,55.6,50.9,29.87,South,188,5.0,9.0,84,0.00,,,0.00,44.0,meteohub,2013-10-22 12:02:00,
2013-10-22 08:07:00,55.6,50.9,29.86,ESE,111,2.0,12.0,84,0.00,,,0.00,54.0,meteohub,2013-10-22 12:07:00,
2013-10-22 08:12:00,55.8,51.1,29.86,SSE,159,4.0,12.0,84,0.00,,,0.00,58.0,meteohub,2013-10-22 12:12:00,
2013-10-22 08:17:00,55.9,51.3,29.86,SSW,192,2.0,12.0,84,0.00,,,0.00,109.0,meteohub,2013-10-22 12:17:00,
2013-10-22 08:22:00,56.1,51.6,29.86,SSW,199,2.0,14.0,85,0.00,,,0.00,163.0,meteohub,2013-10-22 12:22:00,
2013-10-22 08:27:00,56.5,52.0,29.86,South,185,3.0,14.0,85,0.00,,,0.00,172.0,meteohub,2013-10-22 12:27:00,
2013-10-22 08:32:00,56.7,51.8,29.86,SW,225,4.0,14.0,84,0.00,,,0.00,134.0,meteohub,2013-10-22 12:32:00,
2013-10-22 08:37:00,56.8,52.0,29.86,South,178,2.0,11.0,84,0.00,,,0.00,167.0,meteohub,2013-10-22 12:37:00,
2013-10-22 08:42:00,57.0,52.0,29.86,SE,134,4.0,15.0,83,0.00,,,0.00,149.0,meteohub,2013-10-22 12:42:00,
2013-10-22 08:47:00,57.2,51.8,29.86,SSE,167,8.0,15.0,82,0.00,,,0.00,105.0,meteohub,2013-10-22 12:47:00,
2013-10-22 08:52:00,57.4,51.6,29.86,South,173,8.0,15.0,81,0.00,,,0.00,97.0,meteohub,2013-10-22 12:52:00,
2013-10-22 08:57:00,57.4,51.6,29.86,SW,227,5.0,15.0,81,0.00,,,0.00,72.0,meteohub,2013-10-22 12:57:00,
2013-10-22 09:02:00,57.4,51.3,29.86,South,178,6.0,15.0,80,0.00,,,0.00,62.0,meteohub,2013-10-22 13:02:00,
2013-10-22 09:07:00,57.4,51.3,29.86,SSE,156,5.0,12.0,80,0.00,,,0.00,74.0,meteohub,2013-10-22 13:07:00,
2013-10-22 09:12:00,57.4,51.3,29.85,SE,127,8.0,12.0,80,0.00,,,0.00,53.0,meteohub,2013-10-22 13:12:00,
2013-10-22 09:17:00,57.4,51.3,29.86,SW,225,4.0,12.0,80,0.00,,,0.00,79.0,meteohub,2013-10-22 13:17:00,
2013-10-22 09:22:00,57.4,51.3,29.85,East,81,0.0,10.0,80,0.00,,,0.00,98.0,meteohub,2013-10-22 13:22:00,
2013-10-22 09:27:00,57.6,51.4,29.85,WSW,242,6.0,10.0,80,0.00,,,0.00,209.0,meteohub,2013-10-22 13:27:00,
2013-10-22 09:32:00,57.7,52.0,29.85,ESE,112,2.0,10.0,81,0.00,,,0.00,301.0,meteohub,2013-10-22 13:32:00,
2013-10-22 09:37:00,58.1,52.3,29.84,SE,145,6.0,10.0,81,0.00,,,0.00,350.0,meteohub,2013-10-22 13:37:00,
2013-10-22 09:42:00,58.5,52.7,29.85,WSW,251,0.0,13.0,81,0.00,,,0.00,197.0,meteohub,2013-10-22 13:42:00,
2013-10-22 09:47:00,58.5,52.7,29.85,SSW,211,5.0,13.0,81,0.00,,,0.00,230.0,meteohub,2013-10-22 13:47:00,
2013-10-22 09:52:00,58.5,52.7,29.84,SE,138,2.0,11.0,81,0.00,,,0.00,209.0,meteohub,2013-10-22 13:52:00,
2013-10-22 09:57:00,58.5,52.7,29.84,SW,221,3.0,10.0,81,0.00,,,0.00,204.0,meteohub,2013-10-22 13:57:00,
2013-10-22 10:02:00,58.5,52.7,29.84,WSW,254,5.0,10.0,81,0.00,,,0.00,176.0,meteohub,2013-10-22 14:02:00,
2013-10-22 10:07:00,58.6,52.9,29.84,South,171,6.0,11.0,81,0.00,,,0.00,269.0,meteohub,2013-10-22 14:07:00,
2013-10-22 10:12:00,58.6,52.9,29.83,WSW,252,3.0,13.0,81,0.00,,,0.00,174.0,meteohub,2013-10-22 14:12:00,
2013-10-22 10:17:00,58.5,52.7,29.83,South,169,4.0,13.0,81,0.00,,,0.00,244.0,meteohub,2013-10-22 14:17:00,
2013-10-22 10:22:00,58.6,53.2,29.83,West,260,3.0,13.0,82,0.00,,,0.00,387.0,meteohub,2013-10-22 14:22:00,
2013-10-22 10:27:00,58.8,53.1,29.83,South,182,3.0,15.0,81,0.00,,,0.00,276.0,meteohub,2013-10-22 14:27:00,
2013-10-22 10:32:00,59.2,53.4,29.82,SSE,152,13.0,15.0,81,0.00,,,0.00,346.0,meteohub,2013-10-22 14:32:00,
2013-10-22 10:37:00,59.2,53.4,29.82,WSW,244,7.0,13.0,81,0.00,,,0.00,471.0,meteohub,2013-10-22 14:37:00,
2013-10-22 10:42:00,59.4,53.6,29.81,East,82,0.0,13.0,81,0.00,,,0.00,276.0,meteohub,2013-10-22 14:42:00,
2013-10-22 10:47:00,59.4,53.6,29.81,WSW,240,4.0,15.0,81,0.00,,,0.00,241.0,meteohub,2013-10-22 14:47:00,
2013-10-22 10:52:00,59.2,53.4,29.81,SW,233,9.0,15.0,81,0.00,,,0.00,134.0,meteohub,2013-10-22 14:52:00,
2013-10-22 10:57:00,59.0,53.6,29.81,SSE,165,9.0,14.0,82,0.00,,,0.00,90.0,meteohub,2013-10-22 14:57:00,
2013-10-22 11:02:00,58.6,53.2,29.81,WSW,249,6.0,13.0,82,0.00,,,0.00,218.0,meteohub,2013-10-22 15:02:00,
2013-10-22 11:07:00,58.6,53.4,29.81,West,272,3.0,13.0,83,0.00,,,0.00,214.0,meteohub,2013-10-22 15:07:00,
2013-10-22 11:12:00,58.8,53.6,29.80,SSE,167,7.0,14.0,83,0.00,,,0.00,265.0,meteohub,2013-10-22 15:12:00,
2013-10-22 11:17:00,58.8,53.6,29.80,SW,227,3.0,14.0,83,0.00,,,0.00,373.0,meteohub,2013-10-22 15:17:00,
2013-10-22 11:22:00,59.0,54.1,29.80,SW,215,4.0,14.0,84,0.00,,,0.00,287.0,meteohub,2013-10-22 15:22:00,
2013-10-22 11:27:00,59.2,54.3,29.79,WSW,250,5.0,13.0,84,0.00,,,0.00,202.0,meteohub,2013-10-22 15:27:00,
2013-10-22 11:32:00,59.2,54.3,29.79,SW,232,4.0,13.0,84,0.00,,,0.00,230.0,meteohub,2013-10-22 15:32:00,
2013-10-22 11:37:00,59.2,54.3,29.79,SSW,202,3.0,13.0,84,0.00,,,0.00,388.0,meteohub,2013-10-22 15:37:00,
2013-10-22 11:42:00,59.2,54.3,29.79,West,259,6.0,13.0,84,0.00,,,0.00,318.0,meteohub,2013-10-22 15:42:00,
2013-10-22 11:48:00,59.4,54.5,29.78,SSW,213,5.0,13.0,84,0.00,,,0.00,230.0,meteohub,2013-10-22 15:48:00,
2013-10-22 11:53:00,59.4,54.5,29.78,South,184,4.0,11.0,84,0.00,,,0.00,271.0,meteohub,2013-10-22 15:53:00,
2013-10-22 11:58:00,59.2,54.7,29.78,SSE,159,8.0,12.0,85,0.00,,,0.00,309.0,meteohub,2013-10-22 15:58:00,
2013-10-22 12:03:00,59.2,54.7,29.78,SSW,212,11.0,12.0,85,0.00,,,0.00,304.0,meteohub,2013-10-22 16:03:00,
2013-10-22 12:08:00,59.2,54.7,29.77,SW,228,6.0,15.0,85,0.00,,,0.00,195.0,meteohub,2013-10-22 16:08:00,
2013-10-22 12:13:00,59.2,54.7,29.77,South,183,6.0,15.0,85,0.00,,,0.00,214.0,meteohub,2013-10-22 16:13:00,
2013-10-22 12:18:00,58.8,54.7,29.76,SW,225,4.0,15.0,86,0.00,,,0.00,309.0,meteohub,2013-10-22 16:18:00,
2013-10-22 12:23:00,58.8,54.7,29.76,WSW,246,14.0,15.0,86,0.00,,,0.00,281.0,meteohub,2013-10-22 16:23:00,
2013-10-22 12:28:00,58.8,54.7,29.76,SW,220,8.0,15.0,86,0.00,,,0.00,392.0,meteohub,2013-10-22 16:28:00,
2013-10-22 12:33:00,58.8,54.7,29.75,SW,236,2.0,17.0,86,0.00,,,0.00,160.0,meteohub,2013-10-22 16:33:00,
2013-10-22 12:38:00,58.8,54.7,29.75,South,184,4.0,17.0,86,0.00,,,0.00,179.0,meteohub,2013-10-22 16:38:00,
2013-10-22 12:43:00,58.6,54.9,29.75,WSW,254,5.0,13.0,87,0.00,,,0.00,325.0,meteohub,2013-10-22 16:43:00,
2013-10-22 12:48:00,58.8,55.0,29.74,SW,225,5.0,16.0,87,0.00,,,0.00,295.0,meteohub,2013-10-22 16:48:00,
2013-10-22 12:53:00,59.0,55.2,29.74,South,184,5.0,16.0,87,0.00,,,0.00,373.0,meteohub,2013-10-22 16:53:00,
2013-10-22 12:58:00,59.2,55.0,29.74,SE,133,8.0,16.0,86,0.00,,,0.00,327.0,meteohub,2013-10-22 16:58:00,
2013-10-22 13:03:00,59.2,55.0,29.74,WSW,247,4.0,16.0,86,0.00,,,0.00,376.0,meteohub,2013-10-22 17:03:00,
2013-10-22 13:08:00,59.4,55.2,29.73,WSW,248,4.0,16.0,86,0.00,,,0.00,719.0,meteohub,2013-10-22 17:08:00,
2013-10-22 13:13:00,59.7,55.2,29.73,SW,223,10.0,16.0,85,0.00,,,0.00,425.0,meteohub,2013-10-22 17:13:00,
2013-10-22 13:18:00,59.7,54.9,29.73,SW,226,6.0,18.0,84,0.00,,,0.00,306.0,meteohub,2013-10-22 17:18:00,
2013-10-22 13:24:00,59.7,54.9,29.73,WSW,244,4.0,18.0,84,0.00,,,0.00,343.0,meteohub,2013-10-22 17:24:00,
2013-10-22 13:29:00,59.7,55.2,29.73,SW,232,4.0,14.0,85,0.00,,,0.00,267.0,meteohub,2013-10-22 17:29:00,
2013-10-22 13:34:00,59.5,55.0,29.73,SE,146,5.0,13.0,85,0.00,,,0.00,309.0,meteohub,2013-10-22 17:34:00,
2013-10-22 13:39:00,59.2,54.7,29.72,SSW,205,6.0,13.0,85,0.00,,,0.00,227.0,meteohub,2013-10-22 17:39:00,
2013-10-22 13:44:00,59.0,54.9,29.72,SSW,203,2.0,15.0,86,0.00,,,0.00,225.0,meteohub,2013-10-22 17:44:00,
2013-10-22 13:49:00,58.8,54.7,29.72,SW,227,4.0,15.0,86,0.00,,,0.00,332.0,meteohub,2013-10-22 17:49:00,
2013-10-22 13:54:00,58.8,54.7,29.72,SSE,167,6.0,15.0,86,0.00,,,0.00,251.0,meteohub,2013-10-22 17:54:00,
2013-10-22 13:59:00,58.8,55.0,29.71,SSE,155,0.0,13.0,87,0.00,,,0.00,227.0,meteohub,2013-10-22 17:59:00,
2013-10-22 14:04:00,58.6,54.9,29.71,WSW,250,3.0,14.0,87,0.00,,,0.00,309.0,meteohub,2013-10-22 18:04:00,
2013-10-22 14:09:00,58.6,54.9,29.70,WSW,240,6.0,14.0,87,0.00,,,0.00,316.0,meteohub,2013-10-22 18:09:00,
2013-10-22 14:14:00,58.8,55.0,29.71,WSW,237,4.0,14.0,87,0.00,,,0.00,325.0,meteohub,2013-10-22 18:14:00,
2013-10-22 14:19:00,58.8,54.7,29.71,SW,235,8.0,13.0,86,0.00,,,0.00,527.0,meteohub,2013-10-22 18:19:00,
2013-10-22 14:24:00,59.0,55.2,29.71,South,178,7.0,12.0,87,0.00,,,0.00,248.0,meteohub,2013-10-22 18:24:00,
2013-10-22 14:29:00,59.0,54.9,29.70,South,184,3.0,12.0,86,0.00,,,0.00,186.0,meteohub,2013-10-22 18:29:00,
2013-10-22 14:34:00,58.8,54.7,29.70,South,182,4.0,12.0,86,0.00,,,0.00,209.0,meteohub,2013-10-22 18:34:00,
2013-10-22 14:39:00,58.6,54.9,29.71,SW,214,4.0,15.0,87,0.00,,,0.00,206.0,meteohub,2013-10-22 18:39:00,
2013-10-22 14:44:00,58.5,54.7,29.70,SE,130,5.0,15.0,87,0.00,,,0.00,165.0,meteohub,2013-10-22 18:44:00,
2013-10-22 14:49:00,58.1,54.5,29.70,SW,224,3.0,13.0,88,0.00,,,0.00,144.0,meteohub,2013-10-22 18:49:00,
2013-10-22 14:54:00,57.9,54.3,29.70,SSE,153,9.0,11.0,88,0.00,,,0.00,132.0,meteohub,2013-10-22 18:54:00,
2013-10-22 14:59:00,57.7,54.1,29.70,SSE,164,10.0,11.0,88,0.00,,,0.00,127.0,meteohub,2013-10-22 18:59:00,
2013-10-22 15:04:00,57.7,54.1,29.70,SW,215,7.0,11.0,88,0.00,,,0.00,97.0,meteohub,2013-10-22 19:04:00,
2013-10-22 15:09:00,57.7,54.1,29.69,South,186,1.0,13.0,88,0.00,,,0.00,77.0,meteohub,2013-10-22 19:09:00,
2013-10-22 15:14:00,57.6,54.0,29.69,SSE,165,1.0,13.0,88,0.00,,,0.00,39.0,meteohub,2013-10-22 19:14:00,
2013-10-22 15:19:00,57.6,53.8,29.69,South,189,5.0,11.0,87,0.00,,,0.00,37.0,meteohub,2013-10-22 19:19:00,
2013-10-22 15:24:00,57.4,53.6,29.69,SW,225,2.0,11.0,87,0.00,,,0.00,42.0,meteohub,2013-10-22 19:24:00,
2013-10-22 15:29:00,57.4,53.6,29.69,SSW,213,11.0,12.0,87,0.00,,,0.00,37.0,meteohub,2013-10-22 19:29:00,
2013-10-22 15:34:00,57.2,53.6,29.70,SSE,167,7.0,14.0,88,0.00,,,0.00,26.0,meteohub,2013-10-22 19:34:00,
2013-10-22 15:39:00,57.2,53.6,29.70,SSE,155,1.0,14.0,88,0.00,,,0.00,32.0,meteohub,2013-10-22 19:39:00,
2013-10-22 15:44:00,57.0,53.4,29.69,SW,230,2.0,11.0,88,0.00,,,0.00,33.0,meteohub,2013-10-22 19:44:00,
2013-10-22 15:49:00,57.0,53.4,29.69,WSW,243,2.0,10.0,88,0.00,,,0.00,47.0,meteohub,2013-10-22 19:49:00,
2013-10-22 15:54:00,57.0,53.4,29.69,SSW,205,8.0,10.0,88,0.00,,,0.00,47.0,meteohub,2013-10-22 19:54:00,
2013-10-22 15:59:00,57.0,53.4,29.69,SW,215,1.0,10.0,88,0.00,,,0.00,33.0,meteohub,2013-10-22 19:59:00,
2013-10-22 16:04:00,56.8,53.2,29.69,SSE,159,8.0,12.0,88,0.00,,,0.00,33.0,meteohub,2013-10-22 20:04:00,
2013-10-22 16:09:00,56.8,53.2,29.69,SSW,213,3.0,12.0,88,0.00,,,0.00,28.0,meteohub,2013-10-22 20:09:00,
2013-10-22 16:14:00,56.8,53.6,29.69,WSW,247,2.0,12.0,89,0.00,,,0.00,26.0,meteohub,2013-10-22 20:14:00,
2013-10-22 16:19:00,56.7,53.4,29.69,South,191,0.0,12.0,89,0.00,,,0.00,30.0,meteohub,2013-10-22 20:19:00,
2013-10-22 16:24:00,56.7,53.4,29.68,SSW,207,7.0,10.0,89,0.00,,,0.00,40.0,meteohub,2013-10-22 20:24:00,
2013-10-22 16:29:00,56.7,53.4,29.68,SE,144,4.0,10.0,89,0.00,,,0.00,39.0,meteohub,2013-10-22 20:29:00,
2013-10-22 16:34:00,56.5,53.2,29.68,West,262,5.0,10.0,89,0.00,,,0.00,37.0,meteohub,2013-10-22 20:34:00,
2013-10-22 16:39:00,56.5,53.6,29.68,SW,218,0.0,10.0,90,0.00,,,0.00,32.0,meteohub,2013-10-22 20:39:00,
2013-10-22 16:45:00,56.3,53.4,29.68,SSW,198,6.0,10.0,90,0.00,,,0.00,47.0,meteohub,2013-10-22 20:45:00,
2013-10-22 16:50:00,56.3,53.4,29.68,SW,229,1.0,10.0,90,0.00,,,0.00,30.0,meteohub,2013-10-22 20:50:00,
2013-10-22 16:55:00,56.3,53.4,29.68,SSW,197,6.0,10.0,90,0.00,,,0.00,32.0,meteohub,2013-10-22 20:55:00,
2013-10-22 17:00:00,56.3,53.4,29.68,SSE,167,1.0,11.0,90,0.00,,,0.00,26.0,meteohub,2013-10-22 21:00:00,
2013-10-22 17:05:00,56.1,53.2,29.68,SSW,205,7.0,11.0,90,0.00,,,0.00,19.0,meteohub,2013-10-22 21:05:00,
2013-10-22 17:10:00,56.1,53.2,29.68,South,184,0.0,11.0,90,0.00,,,0.00,16.0,meteohub,2013-10-22 21:10:00,
2013-10-22 17:15:00,56.1,53.2,29.68,WNW,292,4.0,11.0,90,0.00,,,0.00,14.0,meteohub,2013-10-22 21:15:00,
2013-10-22 17:20:00,56.1,53.2,29.68,West,274,0.0,9.0,90,0.00,,,0.00,12.0,meteohub,2013-10-22 21:20:00,
2013-10-22 17:25:00,56.1,53.6,29.68,South,175,0.0,9.0,91,0.00,,,0.00,9.0,meteohub,2013-10-22 21:25:00,
2013-10-22 17:30:00,56.1,53.6,29.67,WSW,240,0.0,8.0,91,0.00,,,0.00,5.0,meteohub,2013-10-22 21:30:00,
2013-10-22 17:35:00,56.1,53.6,29.67,South,186,0.0,10.0,91,0.00,,,0.00,0.0,meteohub,2013-10-22 21:35:00,
2013-10-22 17:40:00,55.9,53.4,29.67,SSW,197,0.0,10.0,91,0.00,,,0.00,0.0,meteohub,2013-10-22 21:40:00,
2013-10-22 17:45:00,55.9,53.4,29.67,SE,134,1.0,10.0,91,0.00,,,0.00,0.0,meteohub,2013-10-22 21:45:00,
2013-10-22 17:50:00,55.9,53.4,29.67,SSW,212,2.0,7.0,91,0.00,,,0.00,0.0,meteohub,2013-10-22 21:50:00,
2013-10-22 17:55:00,55.9,53.4,29.67,SW,229,6.0,7.0,91,0.00,,,0.00,0.0,meteohub,2013-10-22 21:55:00,
2013-10-22 18:00:00,55.9,53.6,29.67,SSW,209,4.0,7.0,92,0.00,,,0.00,0.0,meteohub,2013-10-22 22:00:00,
2013-10-22 18:05:00,55.9,53.6,29.67,SW,216,0.0,8.0,92,0.00,,,0.00,0.0,meteohub,2013-10-22 22:05:00,
2013-10-22 18:10:00,55.9,53.6,29.67,SW,227,5.0,8.0,92,0.00,,,0.00,0.0,meteohub,2013-10-22 22:10:00,
2013-10-22 18:15:00,55.9,53.6,29.67,South,185,3.0,8.0,92,0.00,,,0.00,0.0,meteohub,2013-10-22 22:15:00,
2013-10-22 18:20:00,55.8,53.8,29.67,SW,215,1.0,8.0,93,0.00,,,0.00,0.0,meteohub,2013-10-22 22:20:00,
2013-10-22 18:25:00,55.8,53.8,29.67,SW,231,5.0,8.0,93,0.00,,,0.00,0.0,meteohub,2013-10-22 22:25:00,
2013-10-22 18:30:00,55.8,53.8,29.67,SW,234,2.0,8.0,93,0.00,,,0.00,0.0,meteohub,2013-10-22 22:30:00,
2013-10-22 18:35:00,55.8,53.8,29.66,SSW,206,0.0,9.0,93,0.00,,,0.00,0.0,meteohub,2013-10-22 22:35:00,
2013-10-22 18:40:00,55.8,53.8,29.66,SSW,209,0.0,9.0,93,0.00,,,0.00,0.0,meteohub,2013-10-22 22:40:00,
2013-10-22 18:45:00,55.8,53.8,29.66,SSW,213,8.0,9.0,93,0.00,,,0.00,0.0,meteohub,2013-10-22 22:45:00,
2013-10-22 18:50:00,55.8,53.8,29.66,SW,219,2.0,8.0,93,0.00,,,0.00,0.0,meteohub,2013-10-22 22:50:00,
2013-10-22 18:55:00,55.6,53.6,29.66,SSW,196,1.0,9.0,93,0.00,,,0.00,0.0,meteohub,2013-10-22 22:55:00,
2013-10-22 19:00:00,55.6,53.6,29.66,WSW,242,0.0,9.0,93,0.00,,,0.00,0.0,meteohub,2013-10-22 23:00:00,
2013-10-22 19:05:00,55.6,53.6,29.66,WSW,242,0.0,9.0,93,0.00,,,0.00,0.0,meteohub,2013-10-22 23:05:00,
2013-10-22 19:10:00,55.6,53.6,29.66,WSW,242,0.0,5.0,93,0.00,,,0.00,0.0,meteohub,2013-10-22 23:10:00,
2013-10-22 19:15:00,55.4,53.4,29.66,SSW,213,0.0,4.0,93,0.00,,,0.00,0.0,meteohub,2013-10-22 23:15:00,
2013-10-22 19:20:00,55.2,53.2,29.66,SSW,204,4.0,7.0,93,0.00,,,0.00,0.0,meteohub,2013-10-22 23:20:00,
2013-10-22 19:25:00,55.2,53.2,29.65,SSW,200,0.0,7.0,93,0.00,,,0.00,0.0,meteohub,2013-10-22 23:25:00,
2013-10-22 19:30:00,55.2,53.2,29.65,SW,221,0.0,7.0,93,0.00,,,0.00,0.0,meteohub,2013-10-22 23:30:00,
2013-10-22 19:35:00,55.2,53.2,29.66,SSW,196,2.0,5.0,93,0.00,,,0.00,0.0,meteohub,2013-10-22 23:35:00,
2013-10-22 19:40:00,55.2,53.2,29.65,SSW,192,0.0,6.0,93,0.00,,,0.00,0.0,meteohub,2013-10-22 23:40:00,
2013-10-22 19:45:00,55.2,53.6,29.65,South,169,0.0,6.0,94,0.00,,,0.00,0.0,meteohub,2013-10-22 23:45:00,
2013-10-22 19:50:00,55.2,53.6,29.65,SW,226,4.0,6.0,94,0.00,,,0.00,0.0,meteohub,2013-10-22 23:50:00,
2013-10-22 19:55:00,55.2,53.6,29.65,SW,225,3.0,5.0,94,0.00,,,0.00,0.0,meteohub,2013-10-22 23:55:00,
2013-10-22 20:00:00,55.2,53.6,29.65,SW,226,0.0,5.0,94,0.00,,,0.00,0.0,meteohub,2013-10-23 00:00:00,
2013-10-22 20:05:00,55.2,53.6,29.65,SW,226,1.0,5.0,94,0.00,,,0.00,0.0,meteohub,2013-10-23 00:05:00,
2013-10-22 20:10:00,55.2,53.6,29.65,SW,226,2.0,4.0,94,0.00,,,0.00,0.0,meteohub,2013-10-23 00:10:00,
2013-10-22 20:15:00,55.2,53.6,29.66,SW,225,0.0,3.0,94,0.00,,,0.00,0.0,meteohub,2013-10-23 00:15:00,
2013-10-22 20:20:00,55.2,53.6,29.66,SW,226,0.0,3.0,94,0.00,,,0.00,0.0,meteohub,2013-10-23 00:20:00,
2013-10-22 20:25:00,55.2,53.6,29.66,SW,226,3.0,3.0,94,0.00,,,0.00,0.0,meteohub,2013-10-23 00:25:00,
2013-10-22 20:30:00,55.2,53.6,29.67,West,279,8.0,8.0,94,0.00,,,0.00,0.0,meteohub,2013-10-23 00:30:00,
2013-10-22 20:35:00,55.0,53.1,29.67,West,271,13.0,13.0,93,0.00,,,0.00,0.0,meteohub,2013-10-23 00:35:00,
2013-10-22 20:40:00,54.5,51.6,29.66,West,269,12.0,22.0,90,0.01,,,0.01,0.0,meteohub,2013-10-23 00:40:00,
2013-10-22 20:45:00,54.7,51.3,29.67,West,259,17.0,22.0,88,0.01,,,0.01,0.0,meteohub,2013-10-23 00:45:00,
2013-10-22 20:50:00,54.7,51.3,29.67,WSW,254,14.0,22.0,88,0.01,,,0.01,0.0,meteohub,2013-10-23 00:50:00,
2013-10-22 20:56:00,54.5,50.7,29.67,WSW,255,12.0,19.0,87,0.01,,,0.01,0.0,meteohub,2013-10-23 00:56:00,
2013-10-22 21:01:00,54.1,50.7,29.66,WSW,247,10.0,19.0,88,0.01,,,0.01,0.0,meteohub,2013-10-23 01:01:00,
2013-10-22 21:06:00,53.8,50.5,29.67,WSW,239,8.0,18.0,89,0.01,,,0.01,0.0,meteohub,2013-10-23 01:06:00,
2013-10-22 21:11:00,53.8,50.9,29.67,West,269,11.0,13.0,90,0.02,,,0.02,0.0,meteohub,2013-10-23 01:11:00,
2013-10-22 21:16:00,53.1,49.3,29.68,WNW,292,16.0,23.0,87,0.02,,,0.02,0.0,meteohub,2013-10-23 01:16:00,
2013-10-22 21:21:00,52.9,49.1,29.68,NW,308,17.0,23.0,87,0.02,,,0.02,0.0,meteohub,2013-10-23 01:21:00,
2013-10-22 21:26:00,52.3,47.7,29.68,WNW,298,11.0,23.0,84,0.03,,,0.02,0.0,meteohub,2013-10-23 01:26:00,
2013-10-22 21:31:00,52.3,47.7,29.68,WNW,292,11.0,19.0,84,0.03,,,0.03,0.0,meteohub,2013-10-23 01:31:00,
2013-10-22 21:36:00,52.2,47.5,29.68,WNW,298,9.0,19.0,84,0.02,,,0.03,0.0,meteohub,2013-10-23 01:36:00,
2013-10-22 21:41:00,52.2,47.5,29.68,WNW,298,9.0,15.0,84,0.02,,,0.03,0.0,meteohub,2013-10-23 01:41:00,
2013-10-22 21:46:00,52.3,47.7,29.68,WNW,302,12.0,14.0,84,0.02,,,0.03,0.0,meteohub,2013-10-23 01:46:00,
2013-10-22 21:51:00,52.3,47.7,29.68,NW,320,9.0,14.0,84,0.02,,,0.03,0.0,meteohub,2013-10-23 01:51:00,
2013-10-22 21:56:00,52.2,47.1,29.69,NNW,328,9.0,14.0,83,0.02,,,0.03,0.0,meteohub,2013-10-23 01:56:00,
2013-10-22 22:01:00,52.2,47.5,29.69,NW,312,9.0,13.0,84,0.02,,,0.03,0.0,meteohub,2013-10-23 02:01:00,
2013-10-22 22:06:00,52.2,47.1,29.69,NNW,336,8.0,13.0,83,0.02,,,0.03,0.0,meteohub,2013-10-23 02:06:00,
2013-10-22 22:11:00,52.0,47.3,29.69,NW,312,9.0,13.0,84,0.01,,,0.03,0.0,meteohub,2013-10-23 02:11:00,
2013-10-22 22:16:00,51.8,47.1,29.69,NW,319,9.0,13.0,84,0.01,,,0.03,0.0,meteohub,2013-10-23 02:16:00,
2013-10-22 22:21:00,51.8,47.5,29.69,NNW,338,8.0,11.0,85,0.01,,,0.03,0.0,meteohub,2013-10-23 02:21:00,
2013-10-22 22:26:00,51.6,46.9,29.69,North,355,10.0,11.0,84,0.00,,,0.03,0.0,meteohub,2013-10-23 02:26:00,
2013-10-22 22:31:00,51.6,46.9,29.70,NNW,342,11.0,13.0,84,0.00,,,0.03,0.0,meteohub,2013-10-23 02:31:00,
2013-10-22 22:36:00,51.6,46.6,29.70,NNW,333,9.0,13.0,83,0.00,,,0.03,0.0,meteohub,2013-10-23 02:36:00,
2013-10-22 22:41:00,51.4,47.1,29.69,North,355,9.0,13.0,85,0.00,,,0.03,0.0,meteohub,2013-10-23 02:41:00,
2013-10-22 22:46:00,51.1,46.8,29.69,NNW,346,7.0,13.0,85,0.00,,,0.03,0.0,meteohub,2013-10-23 02:46:00,
2013-10-22 22:51:00,50.9,46.6,29.69,North,355,10.0,12.0,85,0.00,,,0.03,0.0,meteohub,2013-10-23 02:51:00,
2013-10-22 22:56:00,50.7,46.8,29.70,North,350,11.0,12.0,86,0.00,,,0.03,0.0,meteohub,2013-10-23 02:56:00,
2013-10-22 23:01:00,50.5,46.2,29.70,North,355,10.0,13.0,85,0.00,,,0.03,0.0,meteohub,2013-10-23 03:01:00,
2013-10-22 23:06:00,50.4,45.7,29.70,North,355,9.0,13.0,84,0.00,,,0.03,0.0,meteohub,2013-10-23 03:06:00,
2013-10-22 23:11:00,50.4,45.3,29.70,North,0,9.0,13.0,83,0.00,,,0.03,0.0,meteohub,2013-10-23 03:11:00,
2013-10-22 23:16:00,50.4,44.8,29.70,North,350,9.0,13.0,81,0.00,,,0.03,0.0,meteohub,2013-10-23 03:16:00,
2013-10-22 23:21:00,50.4,45.1,29.70,NNW,348,9.0,13.0,82,0.00,,,0.03,0.0,meteohub,2013-10-23 03:21:00,
2013-10-22 23:26:00,50.4,45.1,29.70,NNW,344,9.0,12.0,82,0.00,,,0.03,0.0,meteohub,2013-10-23 03:26:00,
2013-10-22 23:31:00,50.2,44.6,29.70,North,351,10.0,11.0,81,0.00,,,0.03,0.0,meteohub,2013-10-23 03:31:00,
2013-10-22 23:36:00,50.2,44.2,29.70,NNW,341,7.0,11.0,80,0.00,,,0.03,0.0,meteohub,2013-10-23 03:36:00,
2013-10-22 23:41:00,50.2,43.9,29.70,North,349,9.0,11.0,79,0.00,,,0.03,0.0,meteohub,2013-10-23 03:41:00,
2013-10-22 23:46:00,50.2,43.9,29.70,North,355,10.0,11.0,79,0.00,,,0.03,0.0,meteohub,2013-10-23 03:46:00,
2013-10-22 23:51:00,49.8,43.5,29.71,North,5,9.0,12.0,79,0.00,,,0.03,0.0,meteohub,2013-10-23 03:51:00,
2013-10-22 23:56:00,49.8,43.5,29.70,North,5,7.0,12.0,79,0.00,,,0.03,0.0,meteohub,2013-10-23 03:56:00,